Погода в Линдау

Германия     47°33′40″N   9°41′35″E
темп.,
°C
ветер,
м/с
пор.,
м/с
влажн.,
%
обл.,
%
осадки,
мм/ч
давл.,
гПа
погр.,
м
20 июня, вс
вс2023:00+21ююв228637 0.1 101234
02:00+19юв328546 0.1 101146
05:00+16ю1193100 0.9 101422
08:00+19всв11895 2.5 1014123
11:00+24ссз2258100 0.3 1012723
14:00+24сз2360100 0.4 1010556
17:00+28всв465184 0.4 10041180
20:00+19зсз61493100 5.7 1006622
21 июня, пн
пн2123:00+15юв2194100 0.7 100932
02:00+15ссв0095100 0.8 100927
05:00+15зюз119790 0.8 101053
08:00+17ююв019198 0.8 1010192
11:00+21сз21651 0.1 1010670
14:00+24зсз215413 0.2 10091026
17:00+24ссв22617 0.7 10081072
20:00+21св118224 2.1 100822
22 июня, вт
вт2223:00+16юв11951 3.6 101129
02:00+15юв11950 3.9 101118
05:00+14юз229751 0.3 101172
08:00+16юв119320 0.3 1012149
11:00+21ссз216813 0.1 1010806
14:00+23зсз126240 0.4 10091051
17:00+24зсз216215 0.8 1009969
20:00+15з289366 4.5 1015582
23 июня, ср
ср2323:00+13юв119372 0.0 101630
02:00+14вюв1189100 0.0 101727
05:00+12юв11925 0.0 101623
08:00+16св11841 0.0 1016182
11:00+21ссз236111 0.0 10161018
14:00+23сз235371 0.1 10151346
17:00+24ссв345494 0.0 10141345
20:00+19св25845 0.7 1014168
24 июня, чт
чт2423:00+13зсз139366 4.2 1021164
02:00+12юв22954 4.2 101850
05:00+11сз01953 0.0 101736
08:00+14юз119444 0.3 1018277
11:00+15з1295100 2.4 1019476
14:00+18з1275100 3.2 1018598
17:00+20зюз126534 0.1 1018860
20:00+17зсз238846 1.2 1019121